Temp
25 26 27 27 28 28 28 28 28 27 26 25 25 25 25 25 25 24 24 24 26 26
25 26 26 27 28 28 29 29 29 28 26 26 25 25 25 25 25 25 24 24 24 26
25 25 26 27 27 28 28 29 29 28 27 26 25 25 25 25 25 25 25 24 24 25
25 25 25 26 27 27 28 28 29 27 26 26 26 25 25 25 26 25 25 25 25 25
26 26 25 25 26 27 27 28 28 28 27 26 26 25 25 25 25 26 25 25 25 25
26 26 26 26 26 27 27 27 27 27 27 27 26 25 25 25 25 26 25 24 24 25
27 27 26 27 26 26 27 26 27 27 27 27 26 26 25 25 25 25 26 25 24 24
28 28 27 27 27 26 26 26 26 27 27 26 26 26 26 26 25 25 25 26 26 25
29 28 28 28 27 27 26 26 26 26 26 27 26 26 26 26 26 25 25 25 25 25
30 29 28 28 28 27 27 26 26 26 26 26 26 27 27 27 26 26 26 25 25 25
31 30 29 28 28 27 27 27 26 26 26 26 26 26 27 27 27 26 26 26 25 25
31 30 29 28 28 27 27 27 27 26 26 26 26 26 26 27 27 26 26 26 26 25
31 31 30 29 28 27 27 27 27 27 26 26 26 26 26 26 26 26 26 26 26 26
31 30 30 29 28 28 27 27 27 27 27 26 26 26 26 26 26 26 26 26 26 26
Height
791 794 798 801 803 806 809 811 813 816 821 825 829 833 836 837 841 842 844 844 845 847
784 788 791 795 799 801 804 807 809 811 816 820 824 828 832 834 836 839 840 841 843 844
772 778 784 788 792 796 800 802 804 805 810 815 819 824 827 830 833 835 836 838 839 841
765 772 778 782 786 790 795 798 801 805 806 809 814 818 822 824 827 830 831 833 835 836
761 765 769 775 780 784 788 792 795 799 802 804 807 811 814 817 820 822 823 824 828 831
753 757 761 766 772 777 781 785 788 792 794 796 800 803 807 811 814 817 817 820 824 827
744 749 754 760 764 768 772 775 779 782 785 790 794 797 801 805 810 812 815 815 817 819
734 741 747 752 755 759 763 765 769 774 779 783 786 788 792 796 798 801 804 808 810 811
723 730 736 742 745 750 754 759 764 767 770 773 774 777 781 785 790 793 795 796 799 802
711 718 724 731 736 741 745 749 752 756 760 760 762 765 769 774 778 781 784 786 788 791
701 708 714 720 724 730 736 739 743 747 750 752 750 753 757 763 767 768 769 771 774 777
693 699 704 708 713 720 727 730 733 737 741 741 741 744 747 753 757 759 758 759 762 764
686 690 693 698 705 712 717 720 727 728 729 731 731 734 736 742 749 749 746 751 752 753
677 682 686 693 699 704 709 715 718 720 722 723 721 722 726 730 735 731 734 736 737 739
Wind_Speed
30 28 35 23 23 27 23 26 25 28 28 25 20 20 17 15 15 13 15 13 15 10
40 31 30 30 27 23 27 20 23 29 31 29 25 23 22 21 19 16 18 18 17 17
39 38 33 33 31 30 23 28 17 29 33 28 27 24 25 22 21 21 20 20 20 19
39 39 38 32 33 30 33 22 30 23 31 31 28 28 27 27 23 24 25 23 23 25
37 37 38 39 35 33 30 35 27 31 29 29 31 30 32 30 29 26 31 33 27 24
38 38 38 38 40 36 37 35 37 29 31 34 32 33 33 33 32 33 30 29 31 27
38 38 39 37 38 39 39 38 38 38 36 33 33 33 34 33 31 32 30 29 30 31
39 38 37 38 38 39 40 42 40 39 37 36 35 36 35 35 35 35 35 33 31 33
40 40 39 39 39 38 39 38 37 37 38 38 39 40 41 38 35 35 36 35 35 35
40 39 40 39 39 38 39 38 39 38 39 41 43 44 46 46 42 39 37 38 37 36
35 37 37 39 40 39 38 38 39 38 39 40 44 46 48 49 50 44 43 42 42 39
32 33 36 38 39 37 36 37 38 37 38 41 42 43 49 49 50 45 45 44 43 43
32 34 35 36 35 35 36 36 34 36 39 41 43 43 46 50 44 42 44 43 43 46
34 36 34 32 32 32 33 31 33 34 34 39 43 44 44 48 47 49 43 41 41 45
Wind_Direction
209 207 217 223 210 218 212 208 210 205 204 202 211 210 211 211 206 213 213 221 225 224
207 209 210 217 219 217 221 219 218 210 199 207 202 210 210 208 214 210 216 219 224 228
205 205 208 213 216 222 216 225 228 202 200 201 204 207 208 211 216 216 213 216 224 223
205 206 209 212 216 217 223 220 229 203 200 200 201 208 211 210 214 216 216 216 222 223
207 207 208 212 214 215 215 223 221 223 209 202 205 207 211 212 216 218 211 216 216 223
210 209 210 211 212 213 216 216 222 223 215 209 208 208 212 215 217 222 218 213 217 219
211 212 213 213 213 215 216 217 218 218 221 215 212 213 212 214 218 222 229 224 218 218
212 214 215 214 216 216 216 218 217 218 219 217 217 217 216 215 216 218 222 228 230 223
209 212 213 216 216 217 218 220 220 219 219 220 219 221 221 217 219 220 222 225 227 227
206 208 210 213 217 217 218 218 220 219 218 220 222 222 222 221 218 222 223 224 227 227
205 206 208 210 214 216 217 218 219 221 222 224 226 224 224 224 223 222 224 224 224 224
205 205 206 210 213 214 216 219 220 221 223 226 231 230 227 225 225 227 228 227 226 224
212 211 212 212 211 213 217 221 221 224 225 228 234 233 232 229 224 230 233 233 230 229
214 217 218 216 212 212 216 221 224 228 229 232 235 237 236 233 225 228 231 231 231 231